Satellite-Ground Cal/Val Site Overpasses Predictions

Prediction of Satellite NPP Overpassing Cal/Val Site: Antarctic Dome C

Ground Cal/Val Site Location: Latitude: -75.10, Longitude: 123.35; Satellite-Ground Site NADIR distance within 100 km.

Table of predicted overpasses for the next 14.0 days since TLE Epoch: 6/5/2021
Interval Starting Time Ending Time Minimum Distance Time Minimum Distance (km)
1 06/06/2021 15:00:54 06/06/2021 15:01:18 06/06/2021 15:01:06 58.72
2 06/07/2021 14:42:05 06/07/2021 14:42:30 06/07/2021 14:42:17 50.39
3 06/08/2021 07:43:47 06/08/2021 07:44:07 06/08/2021 07:43:57 69.75
4 06/09/2021 07:24:54 06/09/2021 07:25:21 06/09/2021 07:25:08 38.14
5 06/11/2021 15:07:23 06/11/2021 15:07:30 06/11/2021 15:07:26 96.68
6 06/12/2021 14:48:23 06/12/2021 14:48:52 06/12/2021 14:48:37 14.61
7 06/14/2021 07:31:13 06/14/2021 07:31:42 06/14/2021 07:31:28 1.76
8 06/17/2021 14:54:42 06/17/2021 14:55:11 06/17/2021 14:54:56 22.17
